GW6837 Weather Reports


time (UTC)temp
F
wind
direction
speed
knots
gust
knots
rain 1hr
in
rain 24hr
in
rain mn
in
humidity
%
barometer
mb
20260507154222 52 292 6.1 13.0 0.00 0.00 0.00 50 1009.2
20260507153718 52 268 7.8 14.8 0.00 0.00 0.00 45 1009.2
20260507153215 51 278 13.9 20.0 0.00 0.00 0.00 50 1009.2
20260507152711 52 268 9.6 16.5 0.00 0.00 0.00 50 1009.0
20260507152207 51 241 8.7 13.0 0.00 0.00 0.00 51 1009.3
20260507151703 50 311 10.4 11.3 0.00 0.00 0.00 53 1009.3
20260507151200 50 273 6.1 18.2 0.00 0.00 0.00 55 1009.4
20260507150657 50 267 10.4 20.0 0.00 0.00 0.00 55 1009.2
20260507150154 51 255 13.0 17.4 0.00 0.00 0.00 57 1009.3
20260507145649 50 267 7.8 13.0 0.00 0.00 0.00 60 1009.3
20260507145147 50 280 8.7 15.6 0.00 0.00 0.00 62 1009.3
20260507144643 50 268 6.1 13.9 0.00 0.00 0.00 64 1009.5
20260507144142 49 265 7.8 13.0 0.00 0.00 0.00 65 1009.3
20260507143638 49 261 7.8 13.0 0.00 0.00 0.00 67 1009.3
20260507143135 49 261 9.6 15.6 0.00 0.00 0.00 67 1009.3
20260507142630 49 259 5.2 14.8 0.00 0.00 0.00 71 1009.5
20260507142127 49 282 7.8 12.2 0.00 0.00 0.00 70 1009.2
20260507141623 48 283 7.0 11.3 0.00 0.00 0.00 69 1009.6
20260507141120 48 283 11.3 13.0 0.00 0.00 0.00 70 1009.6
20260507140617 48 290 8.7 10.4 0.00 0.00 0.00 69 1009.5
20260507140114 48 296 13.0 14.8 0.00 0.00 0.00 69 1009.2
20260507135611 48 282 10.4 18.2 0.00 0.00 0.00 68 1009.6
20260507135109 48 264 5.2 16.5 0.00 0.00 0.00 68 1009.5
20260507134605 48 277 11.3 16.5 0.00 0.00 0.00 69 1009.6
20260507134101 48 276 11.3 19.1 0.00 0.00 0.00 71 1009.5
20260507133557 48 282 8.7 16.5 0.00 0.00 0.00 71 1009.5
20260507133055 48 284 6.1 11.3 0.00 0.00 0.00 73 1009.4
20260507132552 48 277 7.8 9.6 0.00 0.00 0.00 73 1009.8
20260507132048 48 268 11.3 16.5 0.00 0.00 0.00 74 1009.7
20260507131545 48 284 8.7 9.6 0.00 0.00 0.00 75 1009.8
20260507131042 48 225 11.3 13.0 0.00 0.00 0.00 75 1009.8
20260507130539 48 282 8.7 13.0 0.00 0.00 0.00 74 1009.9
20260507130037 48 288 10.4 11.3 0.00 0.00 0.00 74 1009.9
20260507125535 48 278 9.6 13.0 0.00 0.00 0.00 73 1009.8
20260507125032 48 243 8.7 11.3 0.00 0.00 0.00 74 1009.6
20260507124529 47 293 4.3 7.0 0.00 0.00 0.00 75 1009.7
20260507124026 47 293 9.6 11.3 0.00 0.00 0.00 74 1009.7
20260507123525 47 276 4.3 7.8 0.00 0.00 0.00 76 1009.6
20260507123021 47 278 5.2 7.0 0.00 0.00 0.00 76 1009.7
20260507122516 47 277 6.1 7.0 0.00 0.00 0.00 76 1009.6
20260507122012 46 283 4.3 6.1 0.00 0.00 0.00 75 1009.7
20260507121508 46 281 5.2 5.2 0.00 0.00 0.00 76 1009.6
20260507121004 46 260 4.3 7.8 0.00 0.00 0.00 76 1009.7
20260507120500 46 264 3.5 6.1 0.00 0.00 0.00 78 1009.8
20260507115957 46 287 5.2 5.2 0.00 0.00 0.00 79 1009.9
20260507115454 45 281 6.1 8.7 0.00 0.00 0.00 78 1009.9
20260507114949 45 274 4.3 6.1 0.00 0.00 0.00 80 1009.8
20260507114446 45 281 4.3 6.1 0.00 0.00 0.00 80 1009.5
20260507113943 45 264 4.3 5.2 0.00 0.00 0.00 82 1009.6
20260507113440 44 242 5.2 5.2 0.00 0.00 0.00 83 1009.7
20260507112937 44 233 4.3 5.2 0.00 0.00 0.00 84 1009.9
20260507112435 44 247 4.3 5.2 0.00 0.00 0.00 83 1009.7
20260507111931 44 305 2.6 3.5 0.00 0.00 0.00 85 1009.5
20260507111429 43 268 4.3 7.0 0.00 0.00 0.00 84 1009.7
20260507110925 43 291 6.1 7.0 0.00 0.00 0.00 84 1009.6
20260507110421 43 293 5.2 7.8 0.00 0.00 0.00 84 1009.5
20260507105918 43 292 5.2 8.7 0.00 0.00 0.00 84 1009.5
20260507105415 44 298 4.3 7.0 0.00 0.00 0.00 83 1009.7
20260507104912 44 284 5.2 7.8 0.00 0.00 0.00 80 1009.6
20260507104408 43 302 4.3 5.2 0.00 0.00 0.00 82 1009.4
20260507103904 43 285 3.5 3.5 0.00 0.00 0.00 83 1009.3
20260507103401 43 302 2.6 3.5 0.00 0.00 0.00 84 1009.4
20260507102857 43 280 3.5 3.5 0.00 0.00 0.00 85 1009.4
20260507102354 42 286 0.9 2.6 0.00 0.00 0.00 87 1009.4
20260507101850 42 274 3.5 4.3 0.00 0.00 0.00 88 1009.7
20260507101350 42 241 3.5 3.5 0.00 0.00 0.00 89 1009.6
20260507100848 42 289 1.7 2.6 0.00 0.00 0.00 90 1009.5
20260507100346 41 20 0.9 1.7 0.00 0.00 0.00 92 1009.6
20260507095844 41 274 2.6 2.6 0.00 0.00 0.00 91 1009.5
20260507095340 41 284 1.7 3.5 0.00 0.00 0.00 90 1009.4
20260507094837 42 299 6.1 7.0 0.00 0.00 0.00 90 1009.3
20260507094333 41 295 6.1 7.8 0.00 0.00 0.00 91 1009.3
20260507093831 41 279 4.3 5.2 0.00 0.00 0.00 91 1009.7
20260507093329 42 280 4.3 6.1 0.00 0.00 0.00 91 1009.5
20260507092826 42 240 4.3 5.2 0.00 0.00 0.00 91 1009.5
20260507092323 42 281 4.3 4.3 0.00 0.00 0.00 90 1009.5
20260507091819 42 278 5.2 7.8 0.00 0.00 0.00 90 1009.5
20260507091316 42 288 6.1 7.8 0.00 0.00 0.00 91 1009.4
20260507090811 42 286 7.8 9.6 0.00 0.00 0.00 91 1009.1
20260507090308 42 312 7.8 8.7 0.00 0.00 0.00 91 1009.3
20260507085805 42 307 7.8 9.6 0.00 0.00 0.00 90 1009.1
20260507085305 42 293 4.3 6.1 0.00 0.00 0.00 91 1009.2
20260507084759 42 296 3.5 3.5 0.00 0.00 0.00 91 1009.3
20260507084255 42 224 0.0 3.5 0.00 0.00 0.00 89 1009.4
20260507083753 43 248 3.5 6.1 0.00 0.00 0.00 88 1009.1
20260507083249 42 291 6.1 7.8 0.00 0.00 0.00 89 1008.9
20260507082745 43 278 5.2 7.8 0.00 0.00 0.00 88 1009.1
20260507082241 43 307 6.1 7.8 0.00 0.00 0.00 88 1008.8
20260507081738 43 314 3.5 4.3 0.00 0.00 0.00 88 1008.9
20260507081234 43 269 3.5 4.3 0.00 0.00 0.00 88 1009.4
20260507080731 43 289 6.1 7.8 0.00 0.00 0.00 88 1009.4
20260507080227 43 278 6.1 9.6 0.00 0.00 0.00 88 1008.9
20260507075723 43 303 9.6 10.4 0.00 0.00 0.00 87 1009.1
20260507075219 43 307 7.0 7.8 0.00 0.00 0.00 88 1009.1
20260507074715 44 282 5.2 7.0 0.00 0.00 0.00 87 1009.0
20260507074214 43 267 5.2 6.1 0.00 0.00 0.00 88 1009.2
20260507073710 44 281 5.2 7.8 0.00 0.00 0.00 87 1009.0
20260507073206 44 281 6.1 7.8 0.00 0.00 0.00 87 1008.8
20260507072705 44 309 5.2 5.2 0.00 0.00 0.00 87 1008.8
20260507072201 44 276 5.2 7.8 0.00 0.00 0.00 87 1008.6
20260507071659 44 345 1.7 4.3 0.00 0.00 0.00 87 1008.6
20260507071155 44 309 4.3 11.3 0.00 0.00 0.00 87 1008.6
20260507070652 44 316 7.0 9.6 0.00 0.00 0.00 87 1008.5
20260507070149 44 320 9.6 12.2 0.00 0.00 0.00 86 1008.4
20260507065645 44 284 6.1 13.0 0.00 0.00 0.00 87 1008.6
20260507065142 44 293 10.4 11.3 0.00 0.00 0.00 87 1008.7
20260507064640 44 285 8.7 13.0 0.00 0.00 0.00 87 1008.8
20260507064138 44 297 7.8 9.6 0.00 0.00 0.00 86 1008.4
20260507063636 44 273 8.7 14.8 0.00 0.00 0.00 85 1008.7
20260507063132 44 282 8.7 12.2 0.00 0.00 0.00 86 1008.6
20260507062629 44 288 9.6 14.8 0.00 0.00 0.00 86 1009.0
20260507062127 44 279 7.0 13.9 0.00 0.00 0.00 87 1008.8
20260507061624 44 283 11.3 14.8 0.00 0.00 0.00 87 1008.3
20260507061122 44 289 6.1 9.6 0.00 0.00 0.00 89 1008.4
20260507060620 44 267 6.1 10.4 0.00 0.00 0.00 89 1008.7
20260507060116 45 242 4.3 11.3 0.00 0.00 0.00 88 1008.6
20260507055612 45 246 12.2 14.8 0.00 0.00 0.00 89 1008.5
20260507055108 45 276 7.8 13.9 0.00 0.00 0.00 90 1008.6
20260507054604 45 287 11.3 13.9 0.00 0.00 0.00 89 1008.5
20260507054101 45 267 7.8 13.0 0.00 0.00 0.00 91 1008.2
20260507053559 45 276 9.6 16.5 0.00 0.00 0.00 95 1008.1
20260507053058 45 270 7.8 14.8 0.00 0.00 0.00 95 1008.0
20260507052555 45 257 6.1 7.0 0.00 0.00 0.00 95 1008.3
20260507052051 45 290 3.5 7.0 0.00 0.00 0.00 95 1008.5
20260507051549 45 255 4.3 6.1 0.00 0.00 0.00 95 1008.3
20260507051046 45 267 3.5 6.1 0.00 0.00 0.00 95 1008.1
20260507050542 45 289 5.2 6.1 0.00 0.00 0.00 94 1008.1
20260507050039 45 257 5.2 7.0 0.00 0.00 0.00 94 1008.4
20260507045536 45 253 2.6 6.1 0.00 0.00 0.00 93 1008.3
20260507045033 45 261 6.1 7.8 0.00 0.00 0.00 93 1008.3
20260507044529 45 256 6.1 10.4 0.00 0.00 0.00 92 1008.3
20260507044027 46 271 7.0 10.4 0.00 0.00 0.00 92 1008.3
20260507043522 46 283 9.6 9.6 0.00 0.00 0.00 93 1008.3
20260507043020 46 271 5.2 13.0 0.00 0.00 0.00 92 1008.3
20260507042516 46 281 5.2 9.6 0.00 0.00 0.00 92 1008.4
20260507042011 46 284 5.2 11.3 0.00 0.00 0.00 92 1008.4
20260507041509 46 316 6.1 7.8 0.00 0.00 0.00 92 1008.2
20260507041005 46 313 6.1 9.6 0.00 0.00 0.00 93 1008.5
20260507040501 46 278 3.5 9.6 0.00 0.00 0.00 93 1008.4
20260507035957 46 282 7.0 9.6 0.00 0.29 0.29 94 1008.4
20260507035454 46 316 12.2 12.2 0.00 0.29 0.29 95 1008.3
20260507034950 46 295 6.1 9.6 0.00 0.29 0.29 95 1008.3
20260507034447 46 312 5.2 7.8 0.00 0.29 0.29 95 1008.1
20260507033945 46 282 5.2 9.6 0.00 0.29 0.29 94 1008.1
20260507033443 46 300 7.0 11.3 0.00 0.29 0.29 94 1008.2
20260507032940 47 278 5.2 10.4 0.00 0.29 0.29 93 1008.1
20260507032437 47 267 9.6 11.3 0.00 0.29 0.29 94 1008.4
20260507031933 47 262 8.7 11.3 0.00 0.29 0.29 94 1008.3
20260507031429 47 268 6.1 9.6 0.02 0.29 0.29 93 1008.5
20260507030926 47 268 7.8 12.2 0.02 0.29 0.29 93 1008.2
20260507030424 47 252 7.8 13.0 0.00 0.28 0.28 93 1008.0
20260507025921 47 274 9.6 11.3 0.02 0.28 0.28 94 1008.1
20260507025418 48 283 11.3 13.0 0.00 0.28 0.28 94 1008.3
20260507024916 48 265 9.6 12.2 0.00 0.28 0.28 94 1008.4
20260507024413 48 268 7.8 11.3 0.00 0.28 0.28 94 1008.2
20260507023908 48 269 7.0 12.2 0.00 0.28 0.28 94 1008.1
20260507023405 48 262 11.3 15.6 0.00 0.28 0.28 94 1008.2
20260507022903 49 270 9.6 13.0 0.00 0.28 0.28 94 1008.0
20260507022359 49 290 8.7 13.9 0.00 0.28 0.28 94 1008.2
20260507021855 49 270 7.8 17.4 0.00 0.28 0.28 94 1007.9
20260507021350 50 251 17.4 19.1 0.02 0.28 0.28 94 1007.9
20260507020848 50 282 13.0 13.0 0.02 0.28 0.28 94 1007.8
20260507020345 50 286 9.6 14.8 0.00 0.28 0.28 94 1007.7
20260507015842 50 286 9.6 13.0 0.00 0.28 0.28 94 1007.7
20260507015340 51 275 7.8 12.2 0.02 0.28 0.28 94 1007.7
20260507014837 51 255 11.3 16.5 0.02 0.28 0.28 94 1007.6
20260507014333 51 265 13.9 16.5 0.00 0.27 0.27 95 1007.6
20260507013830 52 287 9.6 12.2 0.00 0.27 0.27 95 1007.4
20260507013327 52 275 10.4 15.6 0.00 0.27 0.27 96 1007.4
20260507012825 52 277 9.6 16.5 0.00 0.27 0.27 96 1007.6
20260507012320 52 292 10.4 12.2 0.00 0.27 0.27 96 1007.3
20260507011817 52 287 6.1 12.2 0.00 0.27 0.27 96 1007.5
20260507011314 53 277 7.0 10.4 0.00 0.27 0.27 96 1007.5
20260507010814 53 274 6.1 7.8 0.00 0.27 0.27 96 1007.3
20260507010310 53 304 5.2 8.7 0.00 0.27 0.27 96 1007.5
20260507005807 53 309 6.1 7.8 0.00 0.27 0.27 96 1007.2
20260507005305 53 311 6.1 8.7 0.02 0.27 0.27 96 1007.2
20260507004800 53 288 6.1 9.6 0.02 0.27 0.27 96 1007.4
20260507004258 53 306 9.6 10.4 0.00 0.27 0.27 96 1007.1
20260507003754 53 306 7.8 11.3 0.00 0.27 0.27 96 1007.2
20260507003249 53 308 9.6 12.2 0.05 0.27 0.27 96 1007.0
20260507002745 53 282 8.7 13.9 0.12 0.26 0.26 96 1006.9
20260507002242 54 319 11.3 13.9 0.33 0.26 0.26 95 1006.9
20260507001739 55 294 9.6 13.9 0.26 0.24 0.24 95 1006.7
20260507001236 58 280 12.2 12.2 0.00 0.20 0.20 96 1006.7
20260507000732 58 229 8.7 10.4 0.00 0.20 0.20 96 1006.4
20260507000228 58 204 8.7 10.4 0.00 0.20 0.20 96 1006.2
20260506235725 58 236 2.6 10.4 0.00 0.20 0.20 97 1006.1
20260506235220 58 202 5.2 8.7 0.00 0.20 0.20 97 1006.4
20260506234718 58 213 6.1 9.6 0.00 0.20 0.20 97 1006.0
20260506234215 58 241 5.2 9.6 0.00 0.20 0.20 97 1006.2
20260506233712 58 216 9.6 13.0 0.00 0.20 0.20 96 1006.1
20260506233209 58 195 6.1 9.6 0.05 0.20 0.20 96 1006.2
20260506232706 58 231 5.2 8.7 0.05 0.20 0.20 96 1006.2
20260506232200 58 240 6.1 13.0 0.02 0.19 0.19 96 1006.0
20260506231658 58 210 16.5 16.5 0.02 0.19 0.19 96 1006.2
20260506231156 58 225 8.7 14.8 0.02 0.19 0.19 95 1005.8
20260506230652 59 203 7.8 13.9 0.00 0.18 0.18 95 1006.0
20260506230149 59 213 9.6 16.5 0.00 0.18 0.18 95 1005.8
20260506225646 59 195 9.6 14.8 0.00 0.18 0.18 95 1005.7
20260506225143 59 192 10.4 12.2 0.00 0.18 0.18 95 1005.8
20260506224639 59 204 7.0 13.9 0.00 0.18 0.18 94 1005.9
20260506224136 59 199 12.2 15.6 0.00 0.18 0.18 94 1006.0
20260506223632 59 188 7.0 13.0 0.00 0.18 0.18 94 1006.0
20260506223128 59 197 8.7 13.0 0.00 0.18 0.18 94 1005.9
20260506222626 59 196 5.2 10.4 0.00 0.18 0.18 94 1006.1
20260506222122 59 221 7.8 14.8 0.00 0.18 0.18 94 1006.1
20260506221619 59 206 8.7 15.6 0.00 0.18 0.18 94 1006.1
20260506221117 59 197 7.8 16.5 0.00 0.18 0.18 94 1006.2
20260506220614 59 218 5.2 13.9 0.00 0.18 0.18 94 1006.1
20260506220109 59 183 11.3 13.9 0.00 0.18 0.18 94 1006.4
20260506215606 59 195 9.6 12.2 0.00 0.18 0.18 94 1006.2
20260506215101 59 184 12.2 15.6 0.00 0.18 0.18 94 1006.4
20260506214559 59 193 7.0 13.0 0.00 0.18 0.18 94 1006.4
20260506214056 59 207 9.6 14.8 0.00 0.18 0.18 94 1006.4
20260506213554 59 199 13.0 14.8 0.00 0.18 0.18 94 1006.4
20260506213051 59 203 10.4 14.8 0.00 0.18 0.18 94 1006.5
20260506212547 59 207 13.0 17.4 0.00 0.18 0.18 93 1006.4
20260506212042 59 192 14.8 15.6 0.00 0.18 0.18 94 1006.5
20260506211538 59 204 17.4 21.7 0.00 0.18 0.18 94 1006.5
20260506211036 59 179 11.3 13.0 0.02 0.18 0.18 95 1006.5
20260506210532 59 199 11.3 13.0 0.02 0.18 0.18 95 1006.6
20260506210029 59 223 7.0 12.2 0.00 0.18 0.18 95 1006.7
20260506205525 59 177 5.2 7.0 0.00 0.18 0.18 95 1006.5
20260506205021 59 184 7.8 9.6 0.00 0.18 0.18 95 1006.8
20260506204519 59 154 9.6 13.9 0.00 0.18 0.18 95 1006.6
20260506204016 59 174 4.3 7.8 0.00 0.18 0.18 95 1006.8
20260506203514 59 145 5.2 7.8 0.02 0.18 0.18 95 1006.9
20260506203010 59 152 5.2 7.8 0.02 0.18 0.18 95 1006.8
20260506202508 59 137 3.5 7.8 0.00 0.18 0.18 95 1007.0
20260506202004 59 178 4.3 7.8 0.00 0.18 0.18 95 1007.0
20260506201502 59 191 8.7 9.6 0.00 0.18 0.18 95 1007.2
20260506200958 59 168 1.7 4.3 0.00 0.18 0.18 95 1007.3
20260506200454 59 193 7.8 11.3 0.00 0.18 0.18 95 1007.4
20260506195951 59 204 5.2 10.4 0.00 0.18 0.18 95 1007.3
20260506195448 59 194 6.1 7.8 0.00 0.18 0.18 95 1007.2
20260506194944 59 209 7.0 10.4 0.02 0.18 0.18 95 1007.6
20260506194442 59 222 6.1 9.6 0.12 0.18 0.18 95 1007.4
20260506193938 59 220 7.8 13.0 0.14 0.17 0.17 95 1007.7
20260506193436 59 218 7.8 9.6 0.09 0.16 0.16 95 1007.5
20260506192932 59 203 5.2 9.6 0.05 0.15 0.15 94 1007.7
20260506192429 59 201 8.7 12.2 0.05 0.14 0.14 94 1007.6
20260506191926 59 215 11.3 11.3 0.05 0.14 0.14 94 1007.7
20260506191422 59 185 1.7 9.6 0.05 0.13 0.13 94 1007.7
20260506190919 59 192 8.7 11.3 0.05 0.13 0.13 94 1007.8
20260506190416 59 196 6.1 11.3 0.05 0.13 0.13 94 1007.9
20260506185913 59 185 9.6 13.9 0.05 0.12 0.12 93 1008.0
20260506185410 59 169 9.6 13.0 0.05 0.12 0.12 93 1007.8
20260506184907 59 200 4.3 13.9 0.00 0.11 0.11 93 1007.9
20260506184404 59 205 13.0 16.5 0.02 0.11 0.11 93 1007.9
20260506183901 59 197 11.3 16.5 0.02 0.11 0.11 93 1007.9
20260506183356 59 184 9.6 11.3 0.02 0.11 0.11 93 1008.1
20260506182854 59 203 9.6 12.2 0.02 0.11 0.11 93 1008.2
20260506182351 59 208 7.0 9.6 0.05 0.10 0.10 93 1008.2
20260506181848 59 180 7.0 13.0 0.07 0.10 0.10 93 1008.2
20260506181346 59 203 12.2 13.9 0.05 0.09 0.09 92 1008.5
20260506180843 59 215 10.4 13.0 0.07 0.09 0.09 92 1008.7
20260506180339 60 207 13.0 13.9 0.07 0.09 0.09 91 1008.8
20260506175835 60 181 9.6 13.0 0.07 0.08 0.08 91 1008.5
20260506175332 60 210 5.2 12.2 0.09 0.07 0.07 90 1008.6
20260506174829 60 223 7.0 13.0 0.07 0.07 0.07 89 1008.7
20260506174327 60 225 8.7 12.2 0.07 0.06 0.06 89 1008.8
20260506173824 60 221 6.1 10.4 0.07 0.06 0.06 88 1008.8
20260506173321 61 213 5.2 10.4 0.05 0.05 0.05 88 1008.8
20260506172818 61 246 4.3 9.6 0.05 0.04 0.04 88 1008.7
20260506172315 61 234 5.2 8.7 0.07 0.04 0.04 87 1008.9
20260506171812 61 203 7.8 7.8 0.07 0.04 0.04 84 1008.7
20260506171309 61 192 5.2 9.6 0.05 0.03 0.03 83 1008.7
20260506170807 62 179 5.2 5.2 0.05 0.02 0.02 83 1008.6
20260506170303 62 187 3.5 5.2 0.07 0.02 0.02 83 1008.8
20260506165802 62 191 6.1 6.1 0.07 0.02 0.02 82 1008.5
20260506165259 62 198 3.5 3.5 0.05 0.01 0.01 80 1008.7
20260506164755 62 194 2.6 5.2 0.02 0.00 0.00 79 1008.7
20260506164252 62 152 6.1 7.8 0.00 0.00 0.00 78 1008.5
20260506163749 63 152 5.2 5.2 0.00 0.00 0.00 77 1008.7
20260506163244 63 144 5.2 6.1 0.00 0.00 0.00 77 1009.1
20260506162740 63 139 5.2 7.0 0.00 0.00 0.00 77 1008.9
20260506162238 62 155 1.7 4.3 0.00 0.00 0.00 77 1008.9
20260506161735 62 177 3.5 7.0 0.00 0.00 0.00 77 1009.2
20260506161232 63 149 6.1 8.7 0.00 0.00 0.00 76 1009.2
20260506160730 63 144 4.3 5.2 0.00 0.00 0.00 76 1009.2
20260506160226 62 181 3.5 6.1 0.00 0.00 0.00 77 1009.4
20260506155725 62 160 4.3 6.1 0.00 0.00 0.00 77 1009.6
20260506155222 62 224 5.2 5.2 0.00 0.00 0.00 77 1010.1